TimeCST,TemperatureF,Dew PointF,Humidity,Sea Level PressureIn,VisibilityMPH,Wind Direction,Wind SpeedMPH,Gust SpeedMPH,PrecipitationIn,Events,Conditions,WindDirDegrees,DateUTC
12:56 AM,37.0,33.1,86,29.89,10.0,NNE,6.9,-,N/A,,Clear,30,2012-11-09 06:56:00
1:56 AM,35.1,32.0,89,29.87,9.0,North,6.9,-,N/A,,Clear,10,2012-11-09 07:56:00
2:56 AM,34.0,32.0,92,29.89,7.0,NNW,5.8,-,N/A,,Clear,340,2012-11-09 08:56:00
3:56 AM,35.1,32.0,89,29.89,5.0,North,6.9,-,N/A,,Scattered Clouds,360,2012-11-09 09:56:00
4:05 AM,35.6,33.8,93,29.88,5.0,North,8.1,-,N/A,,Mostly Cloudy,360,2012-11-09 10:05:00
4:21 AM,35.6,33.8,93,29.88,4.0,North,9.2,-,N/A,,Overcast,360,2012-11-09 10:21:00
4:56 AM,37.0,34.0,89,29.91,5.0,North,11.5,-,N/A,,Overcast,360,2012-11-09 10:56:00
5:56 AM,37.0,34.0,89,29.90,5.0,North,10.4,-,N/A,,Overcast,360,2012-11-09 11:56:00
6:56 AM,36.0,34.0,93,29.90,4.0,North,11.5,-,N/A,,Overcast,10,2012-11-09 12:56:00
7:56 AM,36.0,34.0,93,29.90,3.0,NNE,11.5,-,N/A,,Overcast,20,2012-11-09 13:56:00
8:04 AM,35.6,33.8,93,29.87,2.5,NNE,11.5,-,N/A,,Overcast,20,2012-11-09 14:04:00
8:56 AM,37.0,34.0,89,29.91,3.0,NE,8.1,-,N/A,,Overcast,40,2012-11-09 14:56:00
9:08 AM,37.4,33.8,87,29.87,2.5,NE,10.4,-,N/A,,Overcast,40,2012-11-09 15:08:00
9:34 AM,37.4,33.8,87,29.85,3.0,NNE,11.5,-,N/A,,Overcast,30,2012-11-09 15:34:00
9:56 AM,37.9,35.1,89,29.87,3.0,NE,9.2,-,N/A,,Overcast,50,2012-11-09 15:56:00
10:53 AM,39.2,35.6,87,29.85,5.0,North,5.8,-,N/A,,Haze,10,2012-11-09 16:53:00
10:56 AM,39.9,35.1,83,29.88,5.0,NNE,4.6,-,N/A,,Haze,20,2012-11-09 16:56:00
11:56 AM,43.0,36.0,76,29.86,8.0,North,4.6,-,N/A,,Scattered Clouds,360,2012-11-09 17:56:00
12:56 PM,48.0,37.0,66,29.81,10.0,NE,8.1,-,N/A,,Clear,50,2012-11-09 18:56:00
1:56 PM,51.1,37.9,61,29.78,10.0,North,6.9,-,N/A,,Clear,10,2012-11-09 19:56:00
2:29 PM,53.6,39.2,58,29.73,10.0,NE,6.9,-,N/A,,Mostly Cloudy,40,2012-11-09 20:29:00
2:56 PM,54.0,39.0,57,29.75,10.0,NE,4.6,-,N/A,,Overcast,50,2012-11-09 20:56:00
3:56 PM,55.9,41.0,57,29.73,10.0,East,10.4,-,N/A,,Overcast,90,2012-11-09 21:56:00
4:56 PM,55.0,41.0,59,29.72,10.0,East,5.8,-,N/A,,Mostly Cloudy,90,2012-11-09 22:56:00
5:06 PM,53.6,41.0,62,29.71,10.0,East,3.5,-,N/A,,Scattered Clouds,90,2012-11-09 23:06:00
5:56 PM,46.9,39.0,74,29.75,10.0,NNW,3.5,-,N/A,,Clear,330,2012-11-09 23:56:00
6:56 PM,41.0,36.0,82,29.75,8.0,West,4.6,-,N/A,,Clear,280,2012-11-10 00:56:00
7:56 PM,42.1,36.0,79,29.72,9.0,Calm,Calm,-,N/A,,Clear,0,2012-11-10 01:56:00
8:56 PM,43.0,37.0,80,29.68,9.0,Calm,Calm,-,N/A,,Clear,0,2012-11-10 02:56:00
9:56 PM,48.0,42.1,80,29.65,10.0,East,4.6,-,N/A,,Clear,90,2012-11-10 03:56:00
10:56 PM,39.9,37.0,89,29.65,7.0,Calm,Calm,-,N/A,,Clear,0,2012-11-10 04:56:00
11:56 PM,39.0,35.1,86,29.61,6.0,Calm,Calm,-,N/A,,Clear,0,2012-11-10 05:56:00